AirNav   Pilot Hours Calculator
 
 1548 users online  

0N0 Roosterville Airport
Liberty, Missouri, USA

GOING TO LIBERTY?


FAA INFORMATION EFFECTIVE 15 AUGUST 2019

Location

FAA Identifier: 0N0
Lat/Long: 39-17-23.4000N 094-26-32.8000W
39-17.390000N 094-26.546667W
39.2898333,-94.4424444
(estimated)
Elevation: 1004 ft. / 306.0 m (surveyed)
Variation: 05E (1985)
From city: 3 miles NW of LIBERTY, MO
Time zone: UTC -5 (UTC -6 during Standard Time)
Zip code: 64157

Airport Operations

Airport use: Open to the public
Activation date: 07/1966
Control tower: no
ARTCC: KANSAS CITY CENTER
FSS: COLUMBIA FLIGHT SERVICE STATION
NOTAMs facility: COU (NOTAM-D service available)
Attendance: 0800-DUSK
FOR ATTENDANT OTHER HRS CALL 816-781-4326.
Wind indicator: yes
Segmented circle: no
Lights: ACTVT MIRL RY 18/36 - CTAF.

Airport Communications

CTAF/UNICOM: 122.8
WX AWOS-3 at GPH (7 nm NE): 120.275 (816-407-3399)
WX ASOS at MKC (12 nm SW): PHONE 816-329-2843
WX ASOS at MCI (13 nm W): PHONE 816-329-2808

Nearby radio navigation aids

VOR radial/distance  VOR name  Freq  Var
MCIr084/13.7KANSAS CITY VORTAC113.2505E
ANXr302/18.7NAPOLEON VORTAC114.0007E
BQSr229/33.3BRAYMER VOR/DME111.2003E

Airport Services

Fuel available: 100LL
Parking: tiedowns
Airframe service: MAJOR
Powerplant service: MAJOR
Bottled oxygen: NONE
Bulk oxygen: NONE

Runway Information

Runway 18/36

Dimensions: 2780 x 20 ft. / 847 x 6 m
Surface: asphalt, in good condition
Runway edge lights: non-standard
NSTD MIRL; LGTS 40-50 FT LEFT & RIGHT OF CNTRLN AT 100 FT DSTCS ON WEST SIDE; VARIOUS DSTCS ON EAST SIDE; 2 RED THLD LGTS AT EACH THLD.
Runway edge markings: RWY 36 NSTD BASIC MARKINGS; SMALL NR DESIGNATIONS & DASHED CNTRLN.
Operational restrictions: FIRST 50 FT ON NORTH END STEEP SLOPE; RY ALNMT CROOKED.
RUNWAY 18  RUNWAY 36
Latitude: 39-17.617333N39-17.162333N
Longitude: 094-26.513333W094-26.580500W
Elevation: 1003.0 ft.1004.0 ft.
Traffic pattern: leftleft
Markings: NSTD, in good conditionNSTD, in good condition
Obstructions: 58 ft. trees, 460 ft. from runway, 100 ft. right of centerline, 4:1 slope to clear
RWY 18 1-20 FT GND; BLDGS & AUTO PARKING AREA 0-200 FT FM RY END, 10-125 FT R.
26 ft. trees, 482 ft. from runway, 130 ft. left of centerline, 10:1 slope to clear
RWY 36 +1-4 FT GND & FC 25-30 FT FROM RY END L & R.

Airport Ownership and Management from official FAA records

Ownership: Privately-owned
Owner: AIRE KARE INC
11001 NE 112TH ST.
KANSAS CITY, MO 64157
Phone 816-781-7194
Manager: PAUL STUBER
11001 NE 112TH ST.
KANSAS CITY, MO 64057
Phone 816-781-7194

Airport Operational Statistics

Aircraft based on the field: 65
Single engine airplanes: 63
Multi engine airplanes: 2
    
Aircraft operations: avg 105/week *
91% local general aviation
9% transient general aviation
* for 12-month period ending 31 December 2017

Additional Remarks

WILDLIFE ON & INVOF RY ESPECIALLY EARLY MORNING HRS.
NSTD RY SAFETY AREAS BEYOND BOTH RY ENDS; RY 18 END LARGE DROP OFF; RY 36 HAS 4 FT FENCE 15 FT FM RY END.
FOR CD CTC KANSAS CITY APCH AT 816-329-2710.

Instrument Procedures

There are no published instrument procedures at 0N0.

Some nearby airports with instrument procedures:

KGPH - Midwest National Air Center Airport (7 nm NE)
3EX - Excelsior Springs Memorial Airport (12 nm E)
KMKC - Charles B Wheeler Downtown Airport (12 nm SW)
KMCI - Kansas City International Airport (13 nm W)
3GV - East Kansas City Airport (20 nm SE)
 
Loc | Ops | Rwys | IFR | FBO | Links
Com | Nav | Svcs | Stats | Notes

Kansas City Aviation Department
 
Area around 0N0 (Roosterville Airport)
 
Road maps at: MapQuest Bing Google
 
Aerial photo
WARNING: Photo may not be current or correct
Aerial photo of 0N0 (Roosterville Airport)
Photo by Stu Ostrander
Photo taken 13-May-2010

Do you have a better or more recent aerial photo of Roosterville Airport that you would like to share? If so, please send us your photo.

 
Sectional chart

 
Airport distance calculator
Flying to Roosterville Airport? Find the distance to fly.

From to 0N0

Sunrise and sunset
Times for 19-Aug-2019
 Local
(UTC-5)
 Zulu
(UTC)
Morning civil twilight06:0711:07
Sunrise06:3511:35
Sunset20:0701:07
Evening civil twilight20:3601:36

Current date and time
Zulu (UTC)  19-Aug-2019 15:08:37
Local (UTC-5)  19-Aug-2019 10:08:37
 
METAR
KGPH 
7nm NE 
191435Z AUTO 00000KT 10SM SCT045 SCT060 24/20 A3001 RMK AO2
KMKC 
13nm SW 
191454Z 06005KT 10SM CLR 28/22 A3000 RMK AO2 SLP149 T02830217 51007
KMCI 
14nm W 
191453Z 12007KT 10SM SCT043 27/22 A3001 RMK AO2 SLP150 T02720222 50006
KLXT 
20nm S 
191453Z AUTO 18004KT 10SM CLR 28/23 A3002 RMK AO2 RAB21E31 SLP155 P0000 60000 T02780228 51009 $
TAF
KMKC 
13nm SW 
191120Z 1912/2012 34004KT P6SM FEW050 FM191400 12005KT P6SM SCT250
KMCI 
14nm W 
191120Z 1912/2012 04006KT P6SM BKN045 FM191400 12005KT P6SM SCT250
NOTAMs
Click for the latest NOTAMs
NOTAMs are issued by the DoD/FAA and will open in a separate window not controlled by AirNav.

 

 
 

FBO, Fuel Providers, and Aircraft Ground Support

  
 Business Name 
 
 Contact 
 
 Services / Description 
 
Fuel Prices
 
Comments
  
Aire Kare 816-781-7194
no information available

If you are affiliated with Aire Kare and would like to show here your services, contact info, web link, logo, and more, click here
100LL
FS $4.00 
 Updated 24-Jun-2019
 
   1 read write
FS=Full service
Update Fuel Prices
 

Would you like to see your business listed on this page?

 If your business provides an interesting product or service to pilots, flight crews, aircraft, or users of the Roosterville Airport, you should consider listing it here.  To start the listing process, click on the button below
 
Add a business
 

Other Pages about Roosterville Airport

Update a link
 
Copyright © AirNav, LLC. All rights reserved. Privacy Policy  Contact